Date,TemperatureHighF,TemperatureAvgF,TemperatureLowF,DewpointHighF,DewpointAvgF,DewpointLowF,HumidityHigh,HumidityAvg,HumidityLow,PressureMaxIn,PressureMinIn,WindSpeedMaxMPH,WindSpeedAvgMPH,GustSpeedMaxMPH,PrecipitationSumIn
2013-10-1,78,62,52,53,42,33,73,51,20,29.74,29.62,0,0,0,0.00
2013-10-2,80,66,55,54,43,34,73,48,20,29.74,29.65,4,0,6,0.00
2013-10-3,77,66,58,54,48,40,71,52,29,29.77,29.68,4,0,8,0.00
2013-10-4,83,69,58,59,48,37,78,53,21,29.74,29.65,4,0,4,0.00
2013-10-5,83,71,62,60,48,36,74,48,19,29.74,29.65,4,0,5,0.00
2013-10-6,85,72,63,59,48,36,72,46,18,29.68,29.56,6,1,10,0.00
2013-10-7,73,66,54,63,54,42,89,67,48,29.71,29.44,8,1,11,0.66
2013-10-8,65,55,46,50,35,22,89,53,20,29.95,29.71,5,0,6,0.00
2013-10-9,60,54,50,43,35,25,70,49,28,29.98,29.86,4,0,6,0.08
2013-10-10,58,55,52,56,51,41,95,86,61,29.86,29.62,4,0,5,2.07
2013-10-11,62,60,57,61,59,56,97,96,95,29.68,29.59,4,0,5,2.82
2013-10-12,66,62,59,62,52,37,98,74,35,29.83,29.65,5,0,8,0.29
2013-10-13,63,59,54,59,51,38,96,78,43,29.98,29.80,4,0,6,0.21
2013-10-14,66,58,52,50,41,31,81,55,27,30.01,29.86,4,0,5,0.00
2013-10-15,68,57,49,51,37,21,88,53,17,29.89,29.74,5,0,8,0.00
2013-10-16,69,62,56,53,45,39,79,56,36,29.74,29.56,4,0,6,0.00
2013-10-17,73,64,58,59,50,40,89,63,32,29.56,29.39,5,0,10,0.08
2013-10-18,64,55,46,56,33,19,88,47,18,29.68,29.47,5,1,8,0.00
2013-10-19,65,53,43,48,36,25,79,56,23,29.68,29.44,7,1,13,0.00
2013-10-20,60,51,42,42,25,14,69,39,17,29.74,29.50,5,1,8,0.00
2013-10-21,65,50,37,41,26,14,84,46,15,29.80,29.62,7,1,11,0.00
2013-10-22,62,51,42,58,34,27,87,53,30,29.62,29.50,3,0,6,0.00